This is the latest recevied weather packets stored in our database for station/object F4GQK-13. If no packets are shown the sender has not sent any weather packets the latest 1 day(s).
| Time | Temp. | Humidity | Pressure | Rain* | Wind** | Luminosity | Snow |
|---|---|---|---|---|---|---|---|
| 1777977605 | 15° C | 92% | 1008.8 hPa | 0.25 mm | 1.79 m/s, 100° | 115 W/m² | - |
| 1777977305 | 15° C | 92% | 1008.7 hPa | 0.25 mm | 0.89 m/s, 97° | 124 W/m² | - |
| 1777977005 | 15° C | 92% | 1008.6 hPa | 0 mm | 1.34 m/s, 110° | 125 W/m² | - |
| 1777976705 | 15° C | 91% | 1008.9 hPa | 0 mm | 0.89 m/s, 56° | 148 W/m² | - |
| 1777976405 | 15° C | 90% | 1008.6 hPa | 0 mm | 1.79 m/s, 109° | 154 W/m² | - |
| 1777976105 | 15° C | 90% | 1008.9 hPa | 0 mm | 1.34 m/s, 8° | 153 W/m² | - |
| 1777975805 | 15° C | 90% | 1008.8 hPa | 0 mm | 1.34 m/s, 80° | 166 W/m² | - |
| 1777975506 | - | - | - | - | 1.34 m/s, 123° | - | - |
| 1777975505 | 15° C | 89% | 1008.9 hPa | 0 mm | 1.34 m/s, 123° | 163 W/m² | - |
| 1777975205 | 15° C | 89% | 1008.9 hPa | 0 mm | 2.68 m/s, 81° | 148 W/m² | - |
| 1777974904 | 15° C | 89% | 1008.8 hPa | 0 mm | 1.79 m/s, 65° | 180 W/m² | - |
| 1777974605 | 15° C | 89% | 1008.8 hPa | 0 mm | 0.89 m/s, 114° | 174 W/m² | - |
| 1777974305 | 15° C | 90% | 1008.8 hPa | 0 mm | 1.34 m/s, 119° | 130 W/m² | - |
| 1777974005 | 15° C | 90% | 1008.9 hPa | 0 mm | 0.45 m/s, 98° | 161 W/m² | - |
| 1777973705 | 14.44° C | 91% | 1008.8 hPa | 0 mm | 0.45 m/s, 117° | 129 W/m² | - |
| 1777973404 | 14.44° C | 91% | 1008.8 hPa | 0 mm | 0.89 m/s, 104° | 60 W/m² | - |
| 1777973104 | 14.44° C | 91% | 1008.9 hPa | 0 mm | 1.79 m/s, 99° | 66 W/m² | - |
| 1777972805 | 15° C | 90% | 1008.8 hPa | 0 mm | 0.89 m/s, 85° | 25 W/m² | - |
| 1777972505 | 15° C | 90% | 1008.8 hPa | 0 mm | 0.89 m/s, 20° | 26 W/m² | - |
| 1777972205 | 15° C | 90% | 1008.8 hPa | 0 mm | 1.34 m/s, 12° | 43 W/m² | - |
| 1777971905 | 15° C | 90% | 1008.8 hPa | 0 mm | 1.79 m/s, 353° | 71 W/m² | - |
| 1777971604 | 15° C | 90% | 1008.9 hPa | 0 mm | 1.79 m/s, 354° | 137 W/m² | - |
| 1777971304 | 15° C | 90% | 1009.1 hPa | 0 mm | 1.34 m/s, 63° | 109 W/m² | - |
| 1777971005 | 15° C | 90% | 1008.9 hPa | 0 mm | 2.68 m/s, 87° | 99 W/m² | - |
| 1777970704 | 15° C | 90% | 1009 hPa | 0 mm | 3.13 m/s, 94° | 129 W/m² | - |
* Rain latest hour (hover to see other rain measurements)
** Current wind speed in m/s (hover to see current wind gust speed)